www.pogodaiklimat.ru

Погода и климат >> Архив погоды >> Вьетнам >> Монгцай


ПОГОДА в Монгцае

  • Прогноз погоды в Монгцае
  • Монитор погоды в Монгцае

АРХИВ ПОГОДЫ в Монгцае

Время (UTC), дата Ветер
(напр.,м/с)
 
Видим.   Явления Облачность Т
(С)
Тd
(С)
f
(%)
Тe
(С)
Тes
(С)
Комфортность P
(гПа)
Po
(гПа)
Тmin
(С)
Tmax
(С)
R
(мм)
R24
(мм)
S
(см)
12 18.06 штиль 0 20 км 8/8 600 м
[Cu Sc]
+28.6 +25.5 83 +42 +42 опасность
перегрева
1004.9 1004.2 +32.3 14
15 18.06 С 1 20 км 8/8 600 м
[Cu Sc]
+28.0 +25.8 88 +42 +42 опасность
перегрева
1006.7 1006.0
18 18.06 СВ 1 10 км {гроза, ливн. осадки} 5/5 600 м
[Cb cap]
+26.6 +25.3 93 +39 +39 очень
душно
1006.2 1005.5 17
21 18.06 штиль 0 10 км {ливн. осадки} 6/6 600 м
[Cb cap]
+26.6 +25.6 94 +39 +39 очень
душно
1005.7 1005.0
00 19.06 штиль 0 20 км {ливн. осадки} 3/3 600 м
[Cu med, cong]
+28.8 +27.0 90 +45 +49 опасность
перегрева
1006.6 1005.9 +26.2 19
03 19.06 В 1 20 км в посл. час ливневой дождь 8/8 300 м
[Cu Sc]
+30.2 +27.1 84 +48 +52 опасность
перегрева
1006.8 1006.1
06 19.06 Ю 1 20 км в посл. час ливневой дождь 8/8 600 м
[Cb cap]
+28.7 +27.8 95 +47 +52 опасность
перегрева
1005.5 1004.8 5
09 19.06 З 1 10 км слаб. ливневой дождь 9/9 300 м
[Cb cap]
+28.7 +27.0 91 +45 +46 опасность
перегрева
1003.9 1003.2
12 19.06 С 1 20 км {ливн. осадки} 9/9 300 м
[Cb cap]
+28.1 +27.2 95 +45 +45 опасность
перегрева
1004.3 1003.6 +32.0 9
15 19.06 штиль 0 20 км 8/8 300 м
[Cu Sc]
+27.5 +26.8 96 +43 +43 опасность
перегрева
1005.9 1005.2
18 19.06 штиль 0 20 км 5/5 300 м
[Cu Sc]
+27.5 +26.8 96 +43 +43 опасность
перегрева
1005.4 1004.7
21 19.06 штиль 0 20 км 6/6 600 м
[Cb cap]
+27.3 +26.7 97 +42 +42 опасность
перегрева
1004.9 1004.2
00 20.06 штиль 0 20 км гроза без осадков {ливн. осадки} 9/9 300 м
[Cb cap]
+28.9 +28.0 95 +48 +48 опасность
перегрева
1006.4 1005.7 +27.0 0.5
03 20.06 ЮЗ 2 2000 м гроза, ливневой дождь 10/10 300 м
[Cb cap]
+27.0 +26.1 95 +41 +41 опасность
перегрева
1006.7 1006.0
06 20.06 З 1 10 км гроза, ливневой дождь 9/9 300 м
[Cb cap]
+28.5 +27.1 92 +45 +47 опасность
перегрева
1005.0 1004.3 88
09 20.06 штиль 0 20 км в посл. час ливневой дождь {гроза} 8/8 300 м
[Cb cap]
+28.0 +26.1 89 +42 +44 опасность
перегрева
1003.4 1002.7
12 20.06 штиль 0 20 км {гроза, ливн. осадки} 8/8 300 м
[Cb cap]
+28.8 +27.0 90 +45 +45 опасность
перегрева
1003.4 1002.7 +28.9 92
15 20.06 СЗ 1 20 км 8/8 300 м
[Cu Sc]
+28.2 +26.6 91 +44 +44 опасность
перегрева
1004.4 1003.7
18 20.06 С 1 20 км 5/5 300 м
[Cu Sc]
+27.4 +25.7 90 +40 +40 очень
душно
1003.6 1002.9
21 20.06 штиль 0 20 км 5/5 600 м
[Cb cap]
+27.0 +25.4 91 +39 +39 очень
душно
1003.8 1003.1
00 21.06 штиль 0 20 км {ливн. осадки} 8/8 600 м
[Cb cap]
+28.8 +27.7 94 +47 +48 опасность
перегрева
1004.9 1004.2 +26.5 0.1
03 21.06 Ю 3 20 км {ливн. осадки} 9/9 300 м
[Cu Sc]
+31.6 +28.0 81 +52 +53 опасность
перегрева
1004.8 1004.1
06 21.06 Ю 5 20 км {ливн. осадки} 9/9 1500 м
[Sc]
+32.0 +28.1 80 +53 +54 опасность
перегрева
1003.7 1003.0 0.4
09 21.06 Ю 4 20 км 6/6 1500 м
[Sc]
+31.4 +28.4 84 +53 +54 опасность
перегрева
1002.0 1001.3
12 21.06 ЮЗ 3 20 км 3/3 1500 м
[Sc]
+30.3 +28.4 90 +51 +51 опасность
перегрева
1002.6 1001.9 +32.2 0.4
15 21.06 З 1 20 км ясно +29.4 +28.3 94 +50 +50 опасность
перегрева
1003.7 1003.0
18 21.06 Ю 1 20 км 4/4 1500 м
[Sc]
+29.1 +28.4 96 +49 +49 опасность
перегрева
1002.6 1001.9
21 21.06 ЮЗ 1 20 км 6/6 1500 м
[Sc]
+29.5 +28.4 94 +50 +50 опасность
перегрева
1003.2 1002.5
00 22.06 ЮЗ 1 20 км 8/8 1500 м
[Sc]
+30.8 +28.6 88 +52 +53 опасность
перегрева
1003.6 1002.9 +29.1
03 22.06 Ю 4 20 км 8/8 600 м
[Cu Sc]
+32.2 +28.5 81 +54 +57 опасность
перегрева
1003.6 1002.9
06 22.06 Ю 3 20 км 9/9 600 м
[Cu Sc]
+32.4 +28.3 79 +54 +55 опасность
перегрева
1001.5 1000.8
09 22.06 Ю 3 20 км 8/8 600 м
[Cu Sc]
+31.6 +27.9 81 +52 +53 опасность
перегрева
1001.0 1000.3
12 22.06 ЮЗ 2 20 км 8/8 300 м
[Cu Sc]
+30.5 +27.3 83 +49 +49 опасность
перегрева
1001.9 1001.2 +33.0
15 22.06 ЮЗ 3 20 км ясно +29.9 +26.8 83 +46 +46 опасность
перегрева
1002.5 1001.8
18 22.06 ЮЗ 1 20 км 3/3 600 м
[Cu med, cong]
+29.6 +26.9 85 +46 +46 опасность
перегрева
1001.0 1000.3
21 22.06 Ю 3 10 км в посл. час ливневой дождь 8/8 600 м
[Cb cap]
+29.0 +26.2 85 +44 +44 опасность
перегрева
1002.6 1001.9
00 23.06 ЮЗ 1 20 км {ливн. осадки} 9/9
[Cb cap]
+29.3 +27.2 88 +46 +47 опасность
перегрева
1003.4 1002.7 +28.5 2
03 23.06 ЮЗ 2 20 км 10/10 300 м
[Cb cap]
+31.2 +27.6 81 +50 +50 опасность
перегрева
1003.7 1003.0
06 23.06 СЗ 2 10 км слаб. ливневой дождь 10/10 300 м
[Cb cap]
+30.0 +26.5 82 +46 +46 опасность
перегрева
1003.3 1002.6 0.5
09 23.06 В 2 20 км {ливн. осадки} 10/10 300 м
[Cb cap]
+28.4 +23.7 76 +39 +39 очень
душно
1002.4 1001.7
12 23.06 В 1 20 км {ливн. осадки} 8/8 300 м
[Cu Sc]
+27.9 +25.5 87 +41 +41 опасность
перегрева
1003.5 1002.8 +31.6 4
15 23.06 В 2 20 км 9/9 600 м
[Cb cap]
+27.7 +26.3 92 +42 +42 опасность
перегрева
1005.0 1004.3
18 23.06 СВ 1 20 км 9/9 300 м
[Cu Sc]
+27.3 +25.3 89 +40 +40 очень
душно
1005.1 1004.4
21 23.06 СВ 1 20 км 10/10 300 м
[Cu Sc]
+26.8 +24.9 89 +38 +38 очень
душно
1004.1 1003.4
00 24.06 штиль 0 4000 м ливневой дождь 9/9 300 м
[Cb cap]
+27.5 +25.3 88 +40 +41 очень
душно
1006.1 1005.4 +26.8 0.8
03 24.06 С 2 20 км {ливн. осадки} 10/10 300 м
[Cb cap]
+28.9 +25.9 84 +43 +43 опасность
перегрева
1006.0 1005.3
06 24.06 Ю 3 10 км {ливн. осадки} 10/10 300 м
[Cb cap]
+29.3 +25.4 80 +43 +43 опасность
перегрева
1006.2 1005.5 1
09 24.06 З 1 20 км {ливн. осадки} 10/10 300 м
[Cb cap]
+27.5 +24.6 84 +39 +39 очень
душно
1003.2 1002.5
12 24.06 В 1 20 км {ливн. осадки} 9/9 300 м
[Cu Sc]
+27.0 +25.3 90 +39 +39 очень
душно
1004.4 1003.7 +29.5 4
15 24.06 штиль 0 20 км 8/8 1500 м
[Sc]
+26.9 +26.0 95 +40 +40 очень
душно
1006.1 1005.4
18 24.06 СВ 2 20 км 8/8 1500 м
[Sc]
+27.0 +25.7 93 +40 +40 очень
душно
1005.7 1005.0
21 24.06 СВ 1 20 км 10/10 300 м
[Cu Sc]
+26.3 +25.5 95 +38 +38 очень
душно
1005.1 1004.4
00 25.06 СВ 2 20 км 8/8 300 м
[Cu Sc]
+27.6 +26.4 93 +42 +43 опасность
перегрева
1006.3 1005.6 +26.3
03 25.06 В 2 20 км 9/9 1500 м
[Sc]
+31.8 +28.1 81 +53 +54 опасность
перегрева
1006.1 1005.4
06 25.06 Ю 2 20 км 8/8 600 м
[Cu Sc]
+33.6 +28.3 74 +55 +59 опасность
перегрева
1003.8 1003.1

 

Местоположение метеостанции Монгцай (Вьетнам): широта 21.52 долгота 107.96 высота над уровнем моря 7 м.

В архиве по умолчанию представлена погода в Монгцае за последнюю неделю. Архивные данные за месяц целиком и за предыдущие месяцы, начиная с января 2011 года, Вы можете получить, выбрав интересующий диапазон дат из раскрывающегося списка и нажав кнопку "Ввод!".


*Определитесь, кто Вы:
робот инопланетянин человек

Внимание! Время в таблицах - всемирное. Для получения местного времени необходимо прибавить поправку, которая равна 7 ч.

Смотрите также архив погоды в соседних городах и на ближайших метеорологических станциях:

Погода в Циньчжоу (Гуанси-Чжуанский автономный район, Китай) (82 км)
Погода в Бэйхае (Гуанси-Чжуанский автономный район, Китай) (118 км)
Погода в Наньнине (Гуанси-Чжуанский автономный район, Китай) (126 км)
Погода в Лангсоне (Вьетнам) (129 км)
Погода в Лончжоу (Гуанси-Чжуанский автономный район, Китай) (157 км)
Погода на Бач Лонг Ви (Вьетнам) (157 км)
Погода в Пхульене (Вьетнам) (160 км)
Погода в Каобанге (Вьетнам) (218 км)
Погода в Намдине (Вьетнам) (224 км)
Погода в Ханое (Вьетнам) (230 км)

Пояснения к столбцам:

Ветер - указаны скорость ветра в м/с - средняя за 10 мин, порывы в срок и между сроками (в фигурных скобках) и направление, откуда дует ветер: С - северный, СВ - северо-восточный, В - восточный, ЮВ - юго-восточный, Ю - южный, ЮЗ - юго-западный, З - западный, СЗ - северо-западный.
Видимость - горизонтальная дальность видимости в метрах или километрах. При видимости от 1 до 10 км при отсутствии осадков обычно наблюдается дымка, при ухудшении видимости до 1 км и менее - туман. В сухую погоду видимость может ухудшаться дымом, пылью или мглою.
Явления - указаны атмосферные явления, наблюдавшиеся в срок или в последний час перед сроком; фигурными скобками обозначены явления, наблюдавшиеся между сроками (за 1-3 часа до срока); квадратными скобками обозначены град или гололедные отложения с указанием их диаметра в мм.
Облачность - указаны через наклонную черту общая и нижняя облачность в баллах и высота нижней границы облаков в метрах; квадратными скобками обозначены формы облаков: Ci - перистые, Cs - перисто-слоистые, Cc - перисто-кучевые, Ac - высококучевые, As - высокослоистые, Sc - слоисто-кучевые, Ns - слоисто-дождевые, Cu - кучевые, Cb - кучево-дождевые. Подробнее классификацию облаков см. в Атласе облаков (PDF).
T - Температура воздуха - температура, измеренная на высоте 2 м над землей.
Td - Температура точки росы - температура, при понижении до которой содержащийся в воздухе водяной пар достигнет насыщения.
f - Относительная влажность воздуха - влажноcть воздуха, измеренная на высоте 2 м над землей.
Te - Эффективная температура - температура, которую ощущает одетый по сезону человек в тени. Характеристика душности погоды. При расчете учитывается влияние влажности воздуха и скорости ветра на теплоощущения человека.
Tes - Эффективная температура на солнце - температура, которую ощущает человек, с поправкой на солнечный нагрев. Характеристика знойности погоды. Зависит от высоты солнца над горизонтом, облачности и скорости ветра. Ночью, в пасмурную погоду, а также при ветре 12 м/с и более поправка равна нулю.
P - Атмосферное давление - приведенное к уровню моря атмосферное давление.
Po - Атмосферное давление - измеренное на уровне метеостанции атмосферное давление.
Tmin - Минимальная температура - минимум температуры воздуха на высоте 2 м над землей.
Tmax - Максимальная температура - максимум температуры воздуха на высоте 2 м над землей.
R - Количество осадков - Количество выпавших осадков за период времени, мм. При наведении курсора мыши на число - период времени, за который выпало указанное количество осадков.
R24 - Количество осадков - Количество выпавших осадков за 24 часа, мм.
S - Снежный покров - Высота снежного покрова, см. При наведении курсора мыши на число - состояние снежного покрова и степень покрытия местности в баллах.